Location: Kawakawa
(35.3830°S, 174.0670°E)
Time: 22:26:54
(UTC+13:00)

Explorer 7 - Pass Details

Date: 14 December 2019
Orbit: 485 x 679 km, 50.3° (Epoch: 29 January)

Event Time Altitude Azimuth Distance (km) Brightness Sun altitude
Rises 08:15:48 0° 220° (SW) 2,580 10.0 24.5°
Reaches altitude 10° 08:19:17 10° 187° (S) 1,702 9.5 25.2°
Maximum altitude 08:20:46 12° 164° (SSE) 1,593 9.6 25.5°
Drops below altitude 10° 08:22:16 10° 141° (SE) 1,715 10.2 25.8°
Sets 08:25:48 0° 108° (ESE) 2,626 11.6 26.5°
